Tracking 18032 objects as of 24-March-2017
HD Live streaming from Space Station
objects crossing your sky now

CZ-4C DEB

Track CZ-4C DEB now!
10-day predictions


NORAD ID: 38305
Int'l Code: 2010-009J
Perigee: 1,207.5 km
Apogee: 1,332.5 km
Inclination: 63.5 °
Period: 110.8 minutes
Semi major axis: 7641 km
RCS: 0.0013 m2 (small)
Launch date: March 5, 2010
Source: People's Republic of China (PRC)
Launch site: Jiuquan Satellite Launch Center, China (JSC)

Note: This is SATELLITE DEBRIS
Your satellite tracking list
Your tracking list is empty





NASA's NSSDC Master Catalog

Two Line Element Set (TLE):
1 38305U 10009J   17081.80047633 -.00000034 +00000-0 +14809-3 0  9990
2 38305 063.4981 222.5897 0081751 088.1034 344.9910 12.99804734169264
Source of the keplerian elements: AFSPC